RH
83 83 81 82 83 83 84 79 76 75 76 77 74 75 76 77 79 78 75 74 76 80 82 81 82 81 79 77 73 72 71 67 68 71 73 66 54 49 49 48 46 45 47 48 47 48 49 47 44 43 40 36 36 39 38 36 29 21 21 20 21 21 21 22 22 22 22 22 23 24 25 25 26 25 25 23 19 16 14 14 14 16 21 27 32 33 33 33 35 35 31 28 28 26 24 21 19
81 82 80 80 80 79 80 76 73 71 71 73 71 70 72 75 78 79 76 73 74 77 81 80 80 80 77 77 74 72 70 67 64 66 68 63 56 50 47 45 41 40 41 43 46 48 46 43 40 36 31 27 26 26 25 24 22 21 21 21 22 22 23 23 23 23 23 24 24 25 27 27 28 29 29 27 23 20 17 15 14 15 16 21 27 33 34 34 34 36 34 31 30 29 28 25 23
82 84 80 80 81 78 76 72 70 67 66 67 65 65 67 71 77 82 80 76 74 74 75 75 76 76 73 74 73 69 65 62 60 62 64 61 58 51 46 43 39 38 38 39 43 46 44 42 38 32 28 26 24 23 21 20 20 21 21 22 22 23 24 24 24 24 24 25 25 27 28 28 29 31 32 30 28 25 22 18 16 15 15 17 21 28 34 34 33 34 35 33 31 31 30 29 27
80 83 81 80 82 81 78 71 68 67 65 64 63 62 63 66 71 78 80 79 76 73 71 70 72 74 74 71 67 64 61 58 55 59 62 60 56 47 44 41 37 38 36 35 38 41 41 40 36 30 28 25 23 22 21 20 20 21 22 22 23 24 24 25 25 24 25 25 26 27 27 28 29 32 33 33 33 31 29 25 21 19 18 18 18 22 29 34 34 33 34 33 32 32 31 32 32
77 79 80 78 79 81 81 77 72 68 64 62 63 62 61 61 62 69 75 79 78 76 73 70 70 71 72 68 64 61 58 54 52 59 62 57 52 43 39 39 37 36 35 33 32 36 38 37 33 29 26 24 22 21 20 20 20 21 21 22 23 24 25 25 25 25 25 24 25 25 26 28 30 31 32 33 33 33 33 31 30 28 26 24 22 21 23 28 33 34 32 31 31 32 32 32 34
72 71 73 74 74 74 76 75 72 70 67 64 65 64 61 59 57 60 65 73 77 75 72 69 66 65 67 68 67 61 57 52 48 56 59 52 47 40 35 35 35 34 33 31 30 32 33 31 28 27 24 22 21 19 19 19 20 20 21 21 22 23 24 24 24 24 23 23 25 27 30 30 31 32 33 35 35 35 33 32 32 32 32 31 30 28 26 25 27 31 31 30 29 30 31 31 32
68 64 60 61 62 66 68 67 64 64 67 69 68 63 61 60 58 57 59 64 68 67 65 64 61 58 58 62 66 60 55 52 47 50 53 46 39 36 33 32 33 32 31 31 30 29 28 26 25 24 22 21 19 18 18 18 19 19 19 20 22 22 22 22 22 22 22 25 29 33 34 33 34 36 39 41 40 38 36 34 33 34 36 36 35 33 33 30 25 24 26 28 28 29 30 30 30
69 67 59 56 53 53 55 56 55 55 60 65 67 63 58 57 57 58 58 59 60 58 58 57 56 53 50 52 59 56 53 54 50 48 49 41 33 32 30 29 29 29 31 30 27 24 23 23 22 22 20 18 16 16 16 17 17 17 18 19 21 21 21 21 21 22 25 30 35 38 38 38 38 40 42 42 41 40 39 37 37 40 42 41 39 36 35 34 30 26 23 24 25 27 28 28 29
70 70 65 66 62 54 47 46 50 50 53 56 58 59 57 55 55 55 53 52 51 53 55 53 51 51 47 46 52 50 49 55 54 49 45 38 29 28 27 26 25 25 28 28 24 20 19 20 20 19 17 16 15 15 15 15 16 17 18 19 20 20 20 21 22 26 31 36 40 42 42 42 42 43 44 43 42 42 43 41 40 42 43 42 41 40 38 37 36 34 30 28 26 26 27 26 26
70 70 68 73 74 67 50 41 45 47 48 47 45 47 48 50 52 53 53 50 44 44 50 50 45 47 46 42 47 47 45 49 51 48 43 37 28 25 25 25 24 22 21 21 19 17 17 19 17 16 15 14 13 13 14 16 17 19 20 20 21 20 21 23 26 31 36 39 41 43 44 44 45 45 46 45 44 44 46 45 43 42 41 40 39 39 39 38 39 39 38 36 34 33 31 30 29
70 71 73 76 77 72 55 40 40 44 46 45 41 40 40 41 44 46 48 49 44 40 42 45 43 45 45 41 44 45 43 45 46 44 39 34 29 25 24 23 22 20 18 15 15 15 16 17 15 13 13 12 12 13 15 17 19 21 21 22 22 23 25 26 30 33 36 38 39 40 41 42 44 45 45 44 43 43 44 44 43 42 42 42 41 40 39 38 38 38 38 37 36 35 35 35 34
68 72 75 79 79 74 63 47 39 42 47 47 41 41 44 39 34 36 41 44 44 44 43 43 43 44 43 39 41 42 42 45 46 43 36 30 28 27 23 21 19 17 16 13 12 14 13 13 13 12 11 12 13 15 16 19 20 22 23 24 25 26 27 29 31 33 33 33 33 33 35 38 40 41 41 40 41 41 42 43 44 45 45 45 43 41 40 38 37 36 35 34 35 34 33 32 33
68 72 75 81 80 79 73 56 44 45 45 44 39 39 45 39 34 40 48 48 47 47 46 46 44 42 42 37 36 37 37 42 47 44 38 31 27 26 22 20 18 15 15 12 12 13 10 10 12 11 12 13 14 16 17 19 20 21 23 24 26 27 28 29 30 30 29 28 28 30 32 34 35 35 35 35 34 34 35 37 38 40 42 42 42 41 39 38 36 35 34 33 32 31 32 33 36
67 68 74 82 80 82 81 61 47 45 38 33 34 36 39 35 32 41 51 55 53 50 46 47 48 47 46 40 36 34 32 37 44 43 40 33 25 23 22 19 16 14 14 13 13 11 10 11 12 12 13 14 15 16 17 18 19 19 20 21 23 24 24 24 24 24 23 23 24 24 25 25 24 23 21 20 19 18 19 21 24 28 31 35 37 38 38 38 37 37 36 35 36 38 41 43 45
64 65 72 79 81 84 84 68 50 46 40 30 28 30 30 26 22 28 39 44 43 43 44 49 53 53 51 47 41 35 30 32 37 38 36 31 24 21 20 19 16 14 13 15 15 11 11 13 13 14 14 15 15 16 17 17 17 16 16 17 17 17 17 17 16 16 15 15 14 13 12 11 10 9 8 8 8 8 10 12 15 21 26 31 34 37 40 41 42 42 42 40 39 38 36 36 40
65 66 71 75 80 84 86 75 58 55 51 39 30 25 22 19 15 16 21 23 26 32 38 45 52 55 59 61 52 40 34 32 33 32 31 29 25 21 20 18 16 14 14 16 15 11 13 15 14 15 15 15 16 16 16 15 14 14 13 12 12 12 11 11 10 9 8 7 7 7 7 7 8 7 7 7 7 8 8 9 10 14 20 25 29 31 33 33 32 30 29 25 21 19 16 20 26
73 68 70 79 81 84 85 76 63 58 51 43 39 32 26 21 16 13 12 11 19 30 34 38 48 52 59 67 61 51 43 36 33 32 30 29 26 22 20 17 15 14 14 15 13 13 15 15 15 15 15 15 16 16 14 12 12 11 11 10 10 10 9 9 8 7 7 7 8 9 10 11 12 11 10 9 8 8 10 11 8 8 10 13 15 14 13 13 13 12 9 8 8 8 8 13 15
85 73 69 79 78 79 82 76 65 57 47 43 49 46 37 29 23 20 17 13 14 23 26 27 35 38 43 56 60 59 55 45 36 33 33 32 27 22 19 16 14 14 15 14 12 14 16 15 15 15 14 15 15 14 11 10 10 10 10 10 11 12 12 12 12 12 11 11 11 12 13 13 12 11 10 8 7 7 11 14 9 7 8 9 10 11 12 10 9 9 8 7 9 9 8 9 9
90 80 72 76 74 75 77 74 65 58 51 50 60 60 47 37 31 27 24 21 15 15 17 17 20 20 27 45 53 54 61 58 41 32 34 33 28 23 19 16 13 14 16 13 12 16 17 15 15 13 13 13 12 10 9 9 10 10 10 11 12 14 16 16 16 16 15 14 12 11 11 11 10 10 9 8 7 8 11 13 11 9 8 8 10 13 19 18 11 9 9 9 10 10 9 9 9
90 83 78 78 75 74 72 70 64 56 55 57 65 65 56 44 35 30 26 23 18 15 17 18 18 16 22 36 40 38 51 63 45 28 29 27 25 25 21 16 13 14 17 13 13 17 17 16 15 12 11 11 9 7 7 9 11 11 10 10 11 13 16 17 17 16 16 15 13 11 10 10 10 9 9 8 10 11 10 10 10 9 7 8 8 9 13 13 10 8 9 9 9 9 8 9 9
91 83 80 83 78 74 68 65 61 51 54 62 64 66 68 62 52 42 31 23 19 19 22 24 23 18 20 27 29 24 32 52 44 24 21 20 20 24 21 15 12 14 17 13 14 17 17 16 13 11 10 9 7 5 6 8 10 10 9 8 8 10 12 14 15 14 15 16 15 14 13 12 12 10 9 8 9 9 8 7 8 7 7 7 7 7 8 8 8 8 8 8 9 8 9 8 8
88 81 80 84 79 74 66 61 58 50 51 61 62 65 72 73 71 63 45 29 23 22 22 24 25 20 18 21 28 25 21 33 34 18 13 14 16 20 18 15 14 16 17 12 14 17 16 15 12 9 9 7 6 5 6 8 9 9 8 7 8 9 10 12 14 14 16 17 18 18 17 16 15 13 10 9 8 7 7 8 8 8 8 8 8 8 8 8 8 8 8 8 8 8 8 8 8
85 83 82 85 79 74 68 60 57 50 47 56 59 61 69 71 74 71 58 41 31 30 25 21 23 22 18 19 31 33 20 19 20 11 9 11 13 16 16 15 16 18 17 13 14 17 15 14 11 8 7 6 5 6 7 7 9 9 7 8 9 10 12 14 15 15 17 18 18 18 17 17 17 14 11 10 9 9 9 10 11 10 9 8 8 7 7 7 7 7 7 7 7 7 7 7 7
77 83 84 83 79 73 67 59 55 50 43 48 54 58 64 68 68 66 60 49 41 41 35 25 23 23 19 20 34 38 25 17 12 9 10 10 12 14 15 14 15 18 16 14 16 16 15 13 9 8 7 6 6 7 9 9 8 8 7 8 9 11 13 16 16 16 16 17 18 17 16 16 16 14 13 12 10 10 11 12 12 10 8 7 6 7 7 7 7 7 7 7 7 7 7 7 6
69 79 80 77 74 68 64 58 53 49 42 41 47 55 59 61 62 57 55 54 53 50 43 35 28 26 23 23 34 36 27 18 10 8 11 11 12 14 17 15 15 19 17 16 18 16 14 12 9 7 6 6 7 7 10 11 9 7 6 7 9 10 13 15 16 15 15 15 17 16 15 15 16 16 15 14 12 11 12 11 11 9 8 6 6 7 6 7 7 7 7 7 7 7 7 7 7
65 69 69 66 66 64 63 60 55 51 46 40 41 50 54 54 56 52 50 55 58 54 46 42 34 28 26 25 31 33 28 20 11 8 10 12 12 13 19 17 16 19 17 17 18 15 13 11 9 8 7 7 7 8 10 11 9 6 6 7 8 9 11 12 13 13 13 14 14 15 14 14 16 18 17 16 15 15 13 11 10 10 8 7 7 7 7 7 7 7 7 7 7 7 7 7 7
66 60 55 57 62 67 67 64 60 56 52 44 38 45 49 49 55 51 48 52 57 55 47 42 38 30 25 24 29 32 28 19 12 9 10 13 12 14 19 17 16 18 16 17 17 14 12 10 9 9 9 9 8 8 10 10 8 6 6 6 7 8 9 9 9 10 12 13 12 12 13 14 15 18 18 16 16 16 13 10 11 11 9 8 8 7 7 7 7 7 7 7 8 7 7 7 7
66 54 47 52 59 63 66 66 64 59 55 47 39 41 44 48 54 49 47 50 54 56 52 44 36 28 24 22 26 32 29 20 13 10 11 13 12 14 18 17 17 18 16 17 17 13 10 10 11 10 10 10 9 8 9 10 7 5 6 6 7 8 9 8 8 8 10 12 12 11 11 14 16 17 16 14 13 13 11 11 12 11 10 10 9 9 10 11 11 11 11 11 11 11 11 11 10
59 51 45 50 54 52 60 67 67 62 56 49 40 37 41 48 52 47 48 51 54 59 61 52 36 25 23 22 23 29 30 23 15 9 10 15 13 12 14 16 17 17 16 17 17 13 10 10 11 12 11 10 10 9 10 9 6 5 6 6 7 8 8 8 8 8 9 11 12 10 10 12 14 14 14 13 12 11 11 12 11 11 12 13 13 14 15 16 15 15 15 15 15 14 15 15 14
57 50 43 49 50 48 60 70 68 61 54 49 41 34 40 48 48 46 49 53 58 65 66 56 36 22 20 21 22 25 25 21 16 12 11 15 15 11 12 15 18 16 14 16 16 14 11 9 10 12 11 11 10 9 9 8 7 6 6 6 6 7 7 7 7 8 9 11 11 9 8 9 10 10 10 10 10 10 11 12 13 14 15 16 16 17 17 19 18 18 17 16 14 13 13 14 14
55 48 40 46 46 50 64 68 63 55 52 49 40 33 39 46 45 45 51 53 58 66 68 56 41 30 23 19 20 23 21 12 11 15 14 15 15 11 11 15 16 14 14 15 14 11 9 7 7 9 9 9 8 6 6 6 6 6 6 5 5 6 6 6 6 7 9 11 10 9 8 7 7 7 8 8 9 11 13 14 15 15 16 15 15 16 18 20 20 18 15 12 11 10 9 10 10
46 42 39 45 42 52 65 63 56 53 53 47 38 38 40 43 45 46 51 56 62 71 74 67 63 58 42 24 17 20 21 9 4 14 16 15 14 10 11 15 14 14 14 12 11 8 6 5 4 6 6 5 5 4 4 5 5 5 5 5 5 5 5 5 5 6 9 11 11 10 8 7 7 7 9 10 12 14 14 14 14 14 14 14 14 15 17 19 17 13 11 10 11 13 14 15 14
32 31 36 42 40 53 62 57 55 53 51 42 39 47 45 44 48 46 50 60 70 78 80 79 78 75 58 33 17 18 22 13 4 11 16 13 12 9 10 15 14 12 12 10 9 7 5 4 4 4 4 4 4 4 4 4 5 4 4 5 4 5 5 5 5 6 9 11 12 10 8 8 8 9 10 11 12 13 13 13 13 13 13 13 13 13 14 14 12 11 13 17 21 24 25 26 26
20 21 29 38 38 48 55 54 54 52 45 37 45 59 55 54 54 51 58 68 75 80 81 82 81 77 66 42 21 19 22 17 8 10 15 12 9 8 10 14 13 11 10 9 8 6 4 3 3 4 3 4 4 3 4 4 4 4 4 4 4 4 4 5 5 5 8 10 11 10 9 10 10 10 11 11 12 12 12 14 15 15 14 12 11 11 12 13 13 17 22 26 28 30 29 29 31
16 20 28 36 38 44 52 55 53 49 42 34 47 64 65 65 63 60 67 74 77 81 81 84 85 78 69 50 26 19 22 19 12 9 13 12 8 7 9 12 11 10 10 8 7 5 4 3 3 4 3 3 3 3 4 3 4 4 4 4 4 4 4 5 5 5 7 9 10 10 10 10 11 11 11 11 11 11 13 15 18 18 14 11 11 13 15 17 20 24 28 28 28 28 28 31 35
13 20 27 35 39 42 51 59 56 49 39 31 45 65 71 70 70 69 71 76 78 81 81 83 88 78 64 53 32 19 22 21 13 8 12 12 9 7 7 10 10 9 10 8 8 6 4 4 3 3 3 3 3 3 4 4 3 4 4 4 4 4 5 5 5 6 7 9 9 9 9 10 10 10 11 11 11 12 13 14 16 16 12 13 17 19 22 24 25 26 27 26 26 28 31 36 42
9 16 22 32 39 39 48 59 60 54 37 28 42 62 69 70 74 74 72 76 78 80 83 81 87 82 64 57 46 27 21 24 18 8 10 11 9 7 6 8 9 8 9 8 8 7 4 4 4 4 3 3 4 3 3 4 3 4 4 4 4 4 5 5 6 6 7 9 9 9 9 9 10 10 10 11 11 12 13 12 11 11 13 19 24 25 25 25 25 24 24 25 28 30 33 38 43
6 9 15 27 35 37 48 58 63 62 41 29 41 53 64 71 74 75 70 74 79 79 85 84 84 86 73 60 56 41 23 24 22 9 7 11 9 7 5 7 9 8 8 8 9 8 5 4 4 3 3 3 4 3 4 4 4 4 4 4 5 5 5 5 6 6 7 8 9 9 9 9 9 10 10 11 13 13 12 10 10 12 18 24 26 24 24 24 24 25 26 28 29 30 32 35 39
4 6 9 17 30 39 49 55 62 69 52 36 42 47 59 70 71 73 70 73 81 80 85 87 82 86 83 63 52 48 35 26 23 11 6 8 7 6 6 6 8 8 7 7 7 6 5 4 4 3 4 3 3 4 4 4 4 4 4 4 4 5 5 6 6 7 8 8 9 9 9 9 9 10 11 13 14 13 10 10 12 16 21 24 23 23 24 25 26 27 29 30 30 30 32 35 39
3 5 5 8 27 43 48 54 59 67 60 43 43 45 52 63 63 64 70 74 79 78 81 84 80 82 87 72 52 50 47 32 23 15 6 6 7 5 6 7 8 8 7 6 5 5 5 4 4 4 4 3 4 4 4 4 4 4 4 4 4 5 5 6 7 7 8 8 8 9 9 9 9 10 12 15 16 12 10 14 16 19 22 24 24 25 26 26 28 29 30 30 30 32 34 38 39
2 4 4 2 22 41 48 56 56 59 61 47 42 43 44 54 56 56 66 72 72 73 75 77 79 80 83 80 62 48 47 36 25 20 10 4 6 5 5 7 7 8 7 6 5 5 5 5 4 4 4 4 4 4 4 4 4 4 4 4 4 5 5 6 7 7 8 8 8 8 9 9 9 10 13 16 17 12 12 17 20 22 25 26 26 26 27 28 29 30 30 31 32 33 37 38 35
2 3 4 1 15 38 49 55 53 53 59 54 48 39 34 44 51 55 63 64 65 70 71 72 77 79 80 84 74 51 46 43 29 22 15 6 4 4 5 5 6 7 6 5 6 5 5 5 4 4 3 4 3 3 4 4 4 4 4 4 4 4 5 5 6 7 7 8 8 8 8 9 9 11 14 18 18 13 15 20 22 26 28 28 27 27 29 30 30 31 32 32 33 36 38 34 28
3 2 4 2 7 31 49 53 53 52 54 61 59 39 26 33 43 53 58 55 62 68 66 67 71 76 78 82 80 60 48 48 36 23 17 10 5 3 3 4 4 5 5 5 4 4 4 4 4 4 4 4 3 3 3 3 4 4 4 4 4 4 5 5 5 6 7 7 8 8 8 9 11 15 18 22 21 15 17 22 25 29 30 28 28 29 30 32 32 33 34 33 36 39 36 29 24
3 2 4 3 4 22 45 53 53 52 52 60 64 46 25 22 32 47 52 50 58 62 60 62 65 72 76 77 81 69 51 48 42 30 21 14 8 4 2 3 3 3 4 4 3 3 3 3 4 4 4 4 3 3 3 3 4 3 4 4 4 4 5 5 5 6 7 7 7 8 9 10 13 18 24 28 25 19 19 23 27 31 31 29 29 30 31 33 33 33 34 36 38 37 31 26 25
3 3 3 4 4 13 39 55 52 54 56 51 57 54 28 12 23 40 45 45 51 55 57 60 62 68 73 74 79 75 59 50 46 38 27 18 12 8 4 3 3 3 3 3 3 3 3 3 3 3 3 3 3 3 3 3 3 3 3 3 4 4 4 5 5 6 6 7 8 8 9 11 14 20 29 33 30 24 21 24 28 31 32 30 30 31 33 35 34 33 34 34 32 31 28 27 26
2 4 3 4 5 7 30 51 52 56 54 35 41 54 31 7 16 32 33 35 44 53 58 59 62 67 70 71 75 77 67 56 51 45 35 25 19 14 9 5 4 3 3 3 3 3 3 3 3 3 3 3 3 3 3 3 3 3 3 3 4 4 4 5 5 6 7 7 8 8 9 12 14 21 31 35 34 29 24 25 29 32 32 30 31 33 34 35 34 32 30 30 29 29 28 25 24
2 4 3 4 4 4 18 39 52 54 36 14 25 47 34 9 10 20 20 24 40 56 61 58 59 64 68 70 72 74 71 64 59 52 41 32 24 19 15 10 8 7 6 5 4 4 4 4 4 4 4 4 4 3 3 4 4 3 3 3 4 4 4 5 5 6 7 7 8 8 10 12 13 21 32 36 36 32 26 26 29 32 32 30 33 35 34 34 33 29 29 31 31 28 26 24 24
3 3 3 3 4 4 9 25 41 37 13 2 15 35 33 11 5 13 15 19 36 53 60 57 58 63 66 69 70 71 73 71 65 57 47 37 28 24 22 21 19 16 12 8 5 5 4 4 4 4 4 5 5 5 4 4 4 4 4 4 4 4 4 5 5 6 6 7 7 8 9 11 12 20 31 36 36 34 28 26 29 32 32 31 35 35 34 34 32 30 32 32 29 27 26 25 25
3 3 3 3 3 3 5 12 19 12 2 2 10 24 25 7 3 11 13 17 31 49 59 56 58 64 66 68 68 67 71 72 69 63 53 42 35 30 28 28 27 22 16 10 6 5 5 5 5 5 6 8 10 10 9 7 6 4 5 5 4 5 5 5 5 6 6 6 7 8 8 9 10 17 29 36 36 34 29 26 29 31 31 33 36 34 34 35 33 33 34 31 28 29 29 27 27
3 3 3 2 3 3 3 5 5 2 2 3 8 21 19 3 1 6 8 14 25 42 56 54 53 61 65 67 66 65 67 70 72 71 60 47 41 38 33 29 26 24 20 14 9 7 5 5 6 7 10 13 16 19 19 18 15 12 11 9 6 4 5 6 6 6 7 7 7 7 8 8 9 14 26 35 37 35 30 27 29 31 32 35 36 34 34 35 35 35 33 30 30 32 31 29 28
4 3 3 2 2 3 2 3 3 2 3 2 8 19 13 1 3 4 6 14 18 29 44 48 49 55 60 64 65 64 64 65 69 71 66 56 48 44 41 34 26 23 23 21 16 13 11 10 10 12 16 19 22 24 25 26 26 26 25 22 17 10 5 5 6 6 7 7 7 7 8 8 8 11 22 33 39 38 33 27 28 31 33 37 37 35 36 36 37 36 33 32 34 34 34 31 27
5 4 4 3 3 3 2 3 3 3 3 2 5 10 7 2 3 3 6 12 15 20 28 34 40 50 58 62 63 64 63 62 64 66 67 65 57 50 45 42 35 27 25 24 23 22 21 21 21 22 23 25 27 29 29 30 30 29 30 31 30 24 15 8 5 6 7 7 7 8 8 9 10 13 21 33 40 41 37 29 28 31 34 37 38 37 38 39 39 36 34 35 37 37 37 34 30
5 4 4 4 3 3 3 3 3 3 4 3 2 4 4 2 3 3 4 7 11 16 20 23 31 45 56 58 58 62 63 62 63 64 65 67 67 60 49 44 42 36 29 26 27 27 27 27 27 28 28 29 32 35 35 34 32 30 30 32 34 35 31 20 11 8 8 10 12 15 16 19 21 23 27 35 40 43 42 33 28 32 35 37 39 38 39 42 40 37 37 38 39 40 41 38 35
6 5 4 4 4 4 4 3 3 4 3 3 3 2 3 2 2 3 3 5 7 10 14 17 23 36 50 55 55 57 60 61 61 62 63 65 69 67 55 44 41 41 38 34 32 31 29 28 27 28 29 32 36 37 35 32 29 27 26 28 32 37 40 37 28 19 14 14 17 22 27 32 35 35 34 38 41 44 45 37 30 32 36 38 40 40 42 44 40 37 38 40 40 42 44 42 39
7 6 5 5 5 4 4 3 3 4 3 3 3 3 2 2 2 2 3 3 6 8 10 13 16 23 34 43 47 50 55 58 58 59 62 65 67 66 62 52 42 40 41 41 39 37 34 32 30 29 31 36 39 34 28 24 21 19 19 22 27 32 38 43 44 37 29 25 25 29 36 41 44 45 43 44 45 47 48 41 32 31 35 39 41 42 44 45 40 37 38 40 41 44 46 44 41
8 7 6 5 5 5 5 4 4 4 3 3 3 3 2 2 2 3 3 2 4 6 7 8 11 15 20 24 29 37 46 49 52 56 60 65 66 66 67 63 52 42 41 43 44 41 39 37 34 33 35 38 38 31 24 21 19 18 18 18 23 28 34 40 46 48 45 38 36 38 42 47 50 52 51 51 49 50 53 46 34 31 35 40 43 45 46 45 39 37 38 40 42 47 48 45 41
11 9 7 6 5 5 5 5 5 4 4 3 3 3 2 3 3 2 3 3 3 4 6 5 6 11 16 19 21 23 31 38 45 54 60 63 64 64 64 65 59 48 42 43 44 44 44 41 38 37 39 40 37 30 25 22 20 20 19 18 19 23 29 35 41 48 51 49 47 47 49 52 56 58 58 56 52 50 55 51 37 31 34 39 44 47 46 44 38 36 39 41 45 51 50 46 43
13 11 9 7 5 5 6 5 5 5 4 4 3 3 3 3 3 3 3 3 2 3 6 5 6 7 9 18 24 21 26 41 50 55 59 62 65 63 60 62 62 53 43 41 44 46 44 41 39 40 42 42 39 31 26 25 24 23 21 19 18 18 20 25 30 37 45 50 52 53 55 58 63 66 65 60 54 50 54 53 40 32 33 38 45 48 46 41 37 37 39 42 49 53 51 48 46
Wind_Speed
13 14 13 13 13 13 13 13 15 15 15 16 16 16 16 15 15 13 13 14 14 14 14 15 15 14 13 12 12 13 12 12 14 15 14 13 12 11 12 12 11 10 11 11 11 12 12 11 11 10 9 9 8 9 8 6 4 5 7 7 8 9 9 9 9 9 9 10 10 10 10 10 10 10 11 11 11 11 10 10 10 9 8 8 9 10 9 8 7 7 8 9 9 10 11 11 12
12 13 13 13 12 12 12 12 14 14 15 16 16 16 16 16 16 15 14 15 15 16 17 16 16 14 13 13 13 12 12 11 13 15 15 14 12 10 10 10 10 10 10 11 11 11 11 10 10 10 9 10 9 8 7 6 4 5 6 7 8 8 7 8 8 8 9 9 9 9 9 9 9 10 10 11 11 11 11 10 10 9 8 8 9 9 9 8 7 6 8 8 8 9 9 10 11
11 12 11 12 12 12 11 11 12 13 14 15 15 15 16 16 16 16 16 15 16 16 16 16 15 13 12 12 12 11 11 11 12 13 14 13 12 11 10 9 10 10 10 10 11 11 10 10 9 9 9 9 8 8 7 6 6 6 6 7 6 6 7 7 7 8 9 9 9 9 8 8 9 9 9 10 10 11 11 10 10 9 9 9 8 8 8 8 7 6 7 8 8 8 8 9 10
9 10 9 10 10 10 10 10 11 12 13 13 14 14 15 15 15 16 16 15 15 14 13 14 14 13 11 10 10 9 9 9 10 12 12 12 11 10 10 9 9 9 8 9 10 10 10 10 9 8 9 8 8 7 7 6 6 6 6 6 5 6 6 6 7 8 8 8 8 8 8 8 8 8 8 9 9 10 10 10 10 10 10 9 8 7 7 7 7 6 7 7 7 7 7 8 9
7 8 7 8 9 9 9 9 10 10 11 12 13 13 13 14 14 15 15 14 14 13 11 11 12 13 11 8 7 7 6 6 8 11 11 11 10 8 10 9 8 8 7 8 9 9 9 9 8 8 8 8 7 7 6 7 6 6 5 5 5 5 6 6 7 8 8 8 8 8 8 8 8 8 8 9 9 9 9 9 10 10 10 10 9 8 7 6 6 7 7 7 7 7 6 7 8
6 6 6 7 8 8 8 8 9 9 9 11 12 12 12 12 13 14 14 13 13 12 11 10 9 11 11 8 6 5 4 3 5 9 10 10 10 8 8 9 8 7 7 7 7 7 8 8 8 7 7 7 7 7 7 7 7 6 5 5 5 5 5 6 7 7 8 8 8 7 8 8 8 9 9 9 9 9 8 9 9 10 10 10 9 9 8 7 6 6 7 7 7 6 6 6 7
7 6 7 8 8 8 6 5 7 8 9 10 11 11 12 12 12 12 13 13 12 12 11 9 7 7 9 9 7 4 2 2 3 6 8 8 9 9 7 8 7 6 6 6 6 6 7 7 7 7 7 7 7 7 7 7 7 6 6 6 6 5 6 7 7 7 8 8 8 8 8 8 9 9 9 9 9 9 9 9 10 10 11 10 9 8 8 8 7 6 6 7 7 6 6 5 6
7 6 7 9 8 7 5 4 4 7 9 10 11 10 11 11 11 11 12 11 11 10 9 7 6 5 6 9 8 5 4 2 2 3 6 6 7 9 7 7 7 6 6 5 5 6 6 7 7 7 7 7 7 8 8 8 7 7 7 6 6 6 7 7 7 8 8 8 8 8 8 9 9 9 9 9 9 9 8 8 9 10 10 9 9 8 8 8 8 7 7 7 6 6 5 5 5
7 6 7 9 8 7 5 4 4 5 8 10 11 9 10 11 11 10 10 9 9 8 7 6 6 6 5 8 8 5 5 4 2 2 4 4 4 7 6 5 5 5 6 6 5 6 6 6 6 7 7 8 8 8 8 8 8 7 7 7 7 8 8 8 8 8 8 8 8 8 8 8 8 8 8 8 8 7 7 7 7 8 8 7 8 8 8 8 8 8 8 8 7 7 6 5 5
7 6 8 9 8 7 5 3 3 4 6 9 10 9 9 10 10 9 9 8 8 8 8 6 6 7 6 8 9 6 5 5 4 3 3 2 2 4 5 3 3 3 4 5 5 6 6 6 6 7 8 8 9 9 9 9 8 8 8 8 8 8 9 9 9 9 8 8 7 7 8 8 8 8 7 7 7 6 6 6 6 5 5 6 7 7 8 8 9 9 9 9 8 8 7 6 6
7 6 9 9 9 8 5 4 3 3 4 6 9 9 9 10 9 9 9 8 7 8 8 7 6 7 5 7 9 7 6 5 3 2 2 2 1 2 3 2 2 2 2 3 5 6 6 7 7 7 9 9 10 10 10 10 9 9 9 9 9 10 10 9 9 9 8 8 8 8 8 8 8 7 7 7 6 6 6 6 5 5 5 6 6 7 8 8 8 8 9 9 8 8 7 7 7
5 6 8 9 10 9 7 6 4 3 3 3 5 7 9 9 8 8 8 8 7 8 7 7 6 6 4 5 8 8 7 5 3 2 2 2 1 1 2 2 2 2 1 2 4 6 7 8 8 9 9 10 11 11 11 10 10 10 10 10 11 11 10 10 10 9 9 8 8 8 8 8 8 8 8 8 8 7 7 7 6 6 7 7 7 8 8 8 8 8 8 8 8 7 7 7 7
6 6 8 8 10 10 8 8 7 5 4 2 1 4 8 8 8 8 8 7 6 7 7 6 5 6 4 3 6 8 8 7 4 2 3 3 2 2 2 3 2 2 2 2 4 6 8 9 10 10 10 11 12 11 11 11 10 11 11 12 12 12 11 11 10 10 10 10 9 9 9 9 9 9 10 10 10 9 9 8 8 8 9 9 9 9 9 9 9 9 9 9 8 8 8 8 8
6 6 8 9 9 9 8 8 9 9 7 5 4 3 5 7 7 7 7 7 6 5 5 6 4 5 5 2 2 4 6 8 5 3 3 4 3 3 3 3 2 2 3 3 4 6 8 10 11 12 12 12 12 12 11 11 11 12 12 12 13 13 12 12 11 11 11 11 11 11 11 11 11 11 12 12 12 11 11 10 11 11 11 11 11 10 11 11 11 11 11 11 10 10 10 9 9
4 6 8 9 8 6 7 9 10 11 10 8 7 5 5 6 7 5 5 5 5 4 4 5 4 5 6 3 1 1 3 7 7 4 3 3 4 4 4 4 3 3 4 4 4 6 9 11 12 12 12 12 12 12 12 12 12 13 13 13 14 14 14 13 13 13 13 13 13 13 13 13 13 13 13 13 13 13 13 13 13 14 14 13 13 13 13 13 13 13 12 12 12 12 11 10 10
2 5 7 8 7 5 6 9 11 12 12 10 9 7 6 6 6 5 4 4 4 4 3 3 4 5 5 3 1 1 3 5 7 5 4 3 4 4 4 4 3 3 4 5 5 7 10 11 12 12 12 12 13 13 13 13 14 14 14 14 15 15 15 15 14 14 14 14 14 15 15 14 14 14 14 14 14 15 15 15 16 16 16 16 16 16 16 16 15 15 14 14 14 14 13 13 12
2 4 6 7 6 6 7 8 9 11 13 13 10 9 8 7 5 5 6 5 5 5 4 2 2 4 5 3 3 2 2 4 6 6 5 4 4 5 5 5 4 4 5 6 7 9 11 11 12 12 12 13 13 13 14 14 15 15 15 16 16 16 16 15 15 15 14 14 15 15 15 15 15 15 16 16 16 16 17 17 17 18 18 18 18 18 18 17 17 16 16 15 15 15 15 15 14
4 5 6 6 5 6 8 8 8 10 13 14 12 10 9 7 6 7 7 6 6 5 5 3 0 1 3 4 4 4 3 4 5 6 6 5 5 6 6 6 5 6 7 8 9 10 11 11 11 12 13 14 14 14 14 15 16 16 16 17 17 17 16 16 16 15 15 15 15 15 15 15 16 16 16 16 16 17 17 17 18 18 18 18 18 17 17 17 16 16 16 15 14 14 14 14 14
7 7 6 6 4 5 7 7 8 9 12 14 13 12 10 7 7 8 8 7 5 5 5 4 3 2 1 3 4 5 5 4 5 6 6 6 5 5 6 6 7 7 8 10 11 12 11 11 11 12 13 14 15 15 15 16 16 17 17 17 17 17 17 16 16 15 15 15 15 15 16 16 16 16 16 16 16 16 16 16 17 17 17 17 16 16 15 15 15 15 14 14 13 13 13 13 13
9 8 7 6 5 5 6 7 8 9 12 14 15 15 13 9 7 8 9 7 6 5 5 6 6 5 3 2 3 4 6 6 6 6 6 6 6 5 6 7 8 9 10 11 13 13 12 11 11 11 13 15 16 16 16 17 17 17 17 18 18 18 18 17 16 15 15 15 15 15 15 15 15 15 15 15 15 15 15 15 15 15 15 15 14 14 14 14 14 14 13 13 13 12 12 12 12
10 9 9 9 7 6 7 8 9 9 11 13 15 17 16 13 11 10 9 9 7 6 5 5 6 6 5 3 3 4 5 7 7 6 6 7 7 7 6 6 7 8 10 12 14 13 12 12 11 12 14 15 16 16 17 17 17 17 17 18 18 18 18 17 16 15 15 14 14 14 15 15 15 14 14 14 14 14 14 14 14 14 14 14 13 12 13 13 14 13 13 13 13 12 12 12 12
12 10 11 10 9 8 7 7 8 8 10 13 14 16 16 14 13 11 10 10 9 7 5 6 6 7 6 5 4 4 4 7 8 7 6 7 8 8 6 5 6 8 11 13 14 14 13 13 12 12 14 16 16 16 16 17 17 17 17 17 18 18 17 17 16 15 15 14 14 13 13 14 14 14 14 13 13 13 13 13 13 13 12 12 12 12 12 13 13 13 13 13 13 12 12 12 12
14 12 12 12 11 10 9 7 8 8 9 11 14 15 15 13 12 11 10 10 10 10 8 7 7 7 7 6 5 5 4 6 8 8 7 8 9 9 9 8 9 10 12 14 15 14 13 13 13 13 15 16 16 16 16 16 16 16 17 17 17 17 17 16 15 15 14 13 13 13 13 13 13 13 13 13 13 13 13 12 12 12 12 12 11 11 12 12 12 12 12 12 12 12 11 11 12
16 15 15 14 14 13 11 8 6 5 6 10 13 14 14 13 11 9 9 10 11 12 10 9 8 7 8 5 4 5 5 5 8 8 8 8 8 9 10 10 11 11 13 14 15 14 14 14 14 14 15 16 16 16 16 16 16 16 16 17 16 16 16 15 14 14 13 13 13 13 13 13 13 13 13 12 12 13 12 12 12 12 11 12 12 12 12 12 12 12 12 11 11 11 11 11 11
18 18 17 17 16 14 11 10 8 6 4 6 12 14 13 12 10 8 9 10 11 12 11 9 8 7 8 5 4 6 6 6 8 10 9 8 7 7 8 8 10 12 14 15 16 15 15 15 15 15 15 15 16 15 15 15 15 16 16 16 15 15 15 14 13 12 12 12 12 12 12 13 13 12 12 12 12 12 12 12 12 11 11 11 12 12 12 12 11 11 11 11 11 10 10 10 10
20 20 20 18 16 13 11 11 10 9 9 5 9 15 13 11 10 8 9 10 11 11 10 9 8 7 7 5 4 5 6 6 8 10 11 10 8 8 7 8 10 13 15 15 16 16 16 16 15 15 15 15 15 15 15 15 15 16 16 15 15 14 14 13 12 12 12 12 12 12 12 12 12 12 11 11 11 10 10 11 11 11 11 11 11 11 11 10 10 10 10 10 10 9 9 9 9
22 22 21 18 15 14 13 13 13 13 14 12 7 14 13 12 10 9 9 10 10 10 9 8 8 7 7 5 4 5 5 4 6 9 10 10 9 9 9 9 11 13 15 15 16 16 16 16 16 15 15 15 15 15 15 15 15 15 15 15 14 13 12 12 12 11 11 11 11 11 11 11 11 11 10 10 10 10 9 9 10 10 10 10 10 10 9 9 9 9 9 9 9 9 10 10 10
25 25 22 18 16 15 14 15 16 16 15 15 10 13 14 12 11 9 10 9 9 9 9 8 7 6 6 5 4 4 4 4 6 9 11 12 11 11 11 12 12 13 15 16 16 16 16 16 16 16 15 15 15 15 15 15 15 14 14 14 13 12 11 11 11 11 10 11 11 11 11 11 11 10 10 9 9 9 8 8 9 9 9 8 8 8 9 9 9 9 9 9 9 9 10 10 11
27 26 23 19 16 13 13 16 17 17 17 18 12 11 13 12 12 10 10 10 9 8 9 9 7 5 6 5 4 4 4 4 5 9 11 11 10 11 13 14 14 15 17 17 16 16 16 16 16 16 16 15 15 15 15 15 14 14 13 13 12 11 10 10 10 10 10 10 11 11 11 11 10 10 10 9 8 8 8 7 8 8 8 8 8 9 9 9 10 10 10 10 9 9 10 10 10
28 27 23 19 17 12 12 16 18 18 19 19 11 11 13 13 12 10 11 10 9 9 8 8 6 6 6 6 5 5 4 4 4 8 10 10 9 10 13 14 16 17 17 17 16 16 16 16 16 16 16 15 14 14 14 14 14 14 13 12 11 10 10 9 9 10 10 10 11 11 11 11 10 9 9 9 8 8 8 7 7 8 8 8 9 10 10 10 10 10 10 10 10 9 10 10 10
29 29 24 20 17 11 13 17 18 19 20 19 10 10 13 13 12 11 12 11 10 9 6 6 7 8 8 8 7 6 6 4 3 7 9 10 10 10 12 14 16 17 17 17 17 16 16 16 16 16 16 15 14 14 14 14 14 14 12 11 10 10 9 9 9 9 9 10 10 10 10 10 10 9 8 8 8 8 7 6 6 7 8 8 10 10 10 10 10 10 10 10 10 10 10 10 10
30 29 24 21 17 13 16 18 17 18 19 18 9 10 12 13 12 12 13 12 10 9 8 8 11 11 9 8 7 7 7 6 2 7 10 10 10 11 13 14 15 17 18 17 16 15 15 15 15 15 15 15 14 14 14 14 14 13 12 11 10 10 9 9 8 9 9 9 10 10 10 9 9 8 8 7 7 6 6 5 6 8 9 10 10 10 9 9 9 9 9 9 10 10 11 11 11
28 27 23 21 18 17 19 18 17 17 18 16 9 11 12 13 13 13 14 13 12 12 11 12 14 13 9 7 7 7 6 6 3 6 11 11 11 12 14 15 15 18 18 17 15 15 15 15 14 14 14 14 14 14 14 14 14 13 12 11 10 10 9 9 9 9 9 9 9 10 10 9 8 7 6 6 5 5 5 5 8 9 10 10 10 9 8 8 8 8 9 10 10 11 11 11 11
24 22 20 20 19 19 19 17 17 17 17 16 12 12 12 15 15 15 15 14 13 12 11 12 13 13 10 7 6 6 6 5 5 3 10 13 14 14 15 16 17 18 17 16 15 15 14 14 14 14 13 13 14 14 13 13 13 12 11 11 10 10 9 9 9 9 9 9 9 9 9 8 7 6 5 4 4 4 5 7 9 9 10 10 9 8 8 7 8 8 9 10 10 11 11 11 11
22 20 19 20 20 19 18 17 17 17 17 17 16 13 13 15 15 15 14 12 11 11 10 11 13 13 10 7 6 5 6 5 5 3 8 13 14 15 16 16 17 17 16 15 14 13 13 13 13 13 13 13 13 13 13 12 12 12 12 11 10 10 10 9 9 9 9 9 9 8 8 7 6 5 3 3 4 5 6 8 9 9 8 8 7 7 7 7 8 8 8 9 10 11 12 12 12
23 22 20 20 21 20 18 18 19 18 17 17 16 13 13 14 14 14 13 11 10 10 9 10 11 12 9 7 6 5 5 5 4 3 5 12 14 16 17 17 17 16 15 14 13 12 12 12 11 11 12 12 12 12 12 12 12 12 12 12 11 10 10 10 9 10 10 9 9 8 6 5 5 4 3 4 5 6 7 7 7 7 6 6 7 7 7 7 8 8 8 9 11 12 12 12 12
23 25 22 21 23 21 18 20 22 21 18 16 17 15 15 14 13 12 13 13 10 9 8 8 10 11 9 6 5 5 4 4 4 2 3 10 13 15 16 17 17 16 14 13 12 11 12 12 12 12 12 12 12 12 12 11 11 11 11 11 11 11 10 10 10 10 10 9 8 7 5 4 3 3 3 5 6 6 6 6 5 5 5 5 6 6 6 7 8 8 9 10 11 12 13 13 13
24 26 25 23 24 21 19 22 24 24 20 16 17 17 16 14 13 13 14 15 11 7 5 5 6 9 9 6 4 5 3 3 4 2 4 9 12 13 15 16 15 14 13 12 11 12 12 13 13 12 12 12 12 12 11 10 10 10 10 10 11 11 11 11 10 10 10 9 8 6 5 3 2 2 3 5 5 6 5 4 4 4 4 4 5 6 7 8 9 9 9 10 11 12 12 13 13
24 26 27 26 23 21 22 24 25 27 25 18 19 19 18 17 16 16 17 15 11 9 5 2 1 4 8 8 4 4 2 1 4 4 6 10 12 13 14 15 15 15 14 14 13 13 12 12 12 11 12 12 11 11 10 10 9 9 8 8 9 10 11 11 10 10 10 9 8 6 4 2 1 2 3 4 5 5 4 3 3 3 3 4 5 6 7 8 8 9 9 10 10 11 12 13 14
26 26 28 24 22 24 25 25 28 31 30 23 21 21 20 20 19 19 18 15 15 15 12 9 6 3 5 8 5 3 2 3 4 4 6 10 12 12 13 15 16 15 15 13 12 11 11 11 11 11 12 11 11 11 10 9 8 8 7 7 7 8 10 11 11 10 9 9 7 6 4 2 0 2 3 3 4 3 2 3 3 3 3 4 5 6 7 7 7 8 9 10 11 11 12 14 15
27 27 27 22 23 27 27 28 31 33 33 27 24 24 21 20 19 18 18 18 18 17 17 15 12 5 3 6 5 3 3 4 5 5 6 9 11 12 14 16 17 16 14 13 11 10 11 12 11 12 12 11 11 10 9 8 8 8 8 8 8 7 8 10 10 9 9 8 7 5 4 2 1 2 2 3 3 2 1 1 1 2 3 4 5 5 6 6 7 7 9 10 11 11 13 14 16
28 27 24 20 25 29 29 32 33 34 35 31 28 28 23 22 21 18 18 19 18 17 18 18 14 9 4 1 4 4 4 5 6 6 6 8 11 13 14 15 15 14 13 13 13 13 14 13 13 12 11 10 10 9 8 8 8 8 8 8 8 7 8 8 10 10 9 8 7 6 4 3 2 2 3 3 3 2 1 1 1 2 3 4 4 4 5 6 7 8 9 10 11 11 12 14 16
27 24 22 23 28 32 32 34 36 37 36 34 34 32 25 24 25 20 19 20 19 19 20 20 17 13 8 4 2 5 4 5 7 7 6 8 10 12 13 13 12 12 13 14 14 14 14 13 12 11 10 10 9 9 8 9 9 9 9 9 8 8 8 9 10 10 9 8 7 7 5 4 3 3 3 3 3 3 3 3 2 2 4 4 3 3 5 6 7 8 9 9 10 10 12 13 14
21 21 24 26 29 33 34 36 39 39 37 38 40 37 30 26 25 23 21 22 22 21 22 21 18 16 12 8 3 3 5 5 7 8 7 8 9 11 12 12 11 12 14 14 13 13 13 12 12 12 11 11 10 9 9 10 10 10 11 10 10 10 10 9 9 9 9 8 8 7 6 5 4 3 3 3 4 4 5 4 4 4 5 4 3 3 5 6 7 8 8 9 9 10 12 13 13
14 21 27 27 28 33 37 39 41 41 41 42 41 40 35 24 22 25 26 26 24 22 22 21 19 17 14 10 6 1 5 6 6 7 8 8 9 10 11 12 13 14 14 13 13 13 13 12 12 12 12 12 11 10 10 12 12 12 12 11 11 11 10 10 10 10 11 11 10 9 8 6 5 5 4 4 5 5 6 6 5 5 5 4 2 3 5 6 7 7 8 8 9 11 12 13 13
15 25 29 28 30 33 38 42 41 42 46 44 40 41 38 23 20 27 27 25 22 20 23 22 21 20 17 13 9 5 5 6 6 7 8 9 9 10 12 12 12 12 12 12 13 14 13 13 12 12 12 12 12 11 11 13 13 13 12 12 13 13 12 11 12 12 12 12 11 11 10 8 7 6 6 6 6 6 7 7 6 6 6 4 3 3 5 6 7 8 8 9 11 12 14 15 15
22 28 30 32 34 34 40 44 42 47 48 41 37 40 40 26 18 25 23 16 17 22 25 23 23 23 19 16 12 7 4 5 6 8 9 10 11 12 12 12 11 11 11 12 13 14 14 14 13 12 12 12 12 12 12 12 12 12 13 14 14 14 13 13 13 13 13 13 13 13 11 10 9 8 7 7 7 7 7 8 8 7 7 5 3 4 5 6 7 8 9 11 13 15 16 16 16
28 31 32 36 37 36 42 45 47 49 42 34 34 40 42 25 13 19 18 12 16 23 26 23 23 24 21 19 16 12 6 3 6 8 9 11 12 12 11 10 11 11 10 12 13 14 15 15 14 14 13 12 12 11 12 12 11 12 13 15 15 15 14 14 15 15 14 14 14 14 12 11 11 10 9 8 8 7 7 8 9 8 7 5 4 5 5 6 6 8 10 12 14 16 17 17 17
29 32 35 39 40 40 44 46 49 46 34 29 33 39 42 25 10 14 15 12 16 22 25 23 23 24 23 22 20 17 13 7 6 8 10 12 12 11 11 11 12 11 11 12 14 15 15 15 15 14 13 13 13 13 13 12 12 13 14 15 16 16 14 15 17 16 16 15 15 14 14 13 12 11 10 9 9 8 8 9 10 9 7 5 5 5 5 6 6 9 11 13 15 16 17 17 17
27 29 33 37 38 41 43 43 44 38 28 29 34 40 44 31 14 13 13 13 16 21 24 23 21 23 24 24 22 20 18 14 10 9 11 12 12 12 12 13 13 13 13 15 15 15 16 15 15 14 13 14 14 14 14 14 13 14 15 15 16 16 16 17 18 18 17 16 15 15 15 14 13 13 12 11 10 9 9 9 10 9 7 6 5 5 5 6 7 10 12 14 15 16 18 18 18
25 26 31 35 34 37 39 39 40 34 28 33 37 43 46 32 16 12 13 16 17 20 23 21 20 21 22 24 24 23 21 19 17 14 12 11 12 14 14 15 15 15 16 17 17 17 16 15 15 14 15 15 14 15 15 16 16 16 17 16 16 16 16 18 19 18 17 17 16 16 15 15 15 14 13 12 11 11 10 10 11 9 8 7 5 5 5 6 8 10 12 13 15 17 19 20 19
27 29 33 30 27 32 37 39 40 37 35 37 39 43 41 29 21 20 19 20 19 19 21 20 20 21 22 25 25 23 22 20 19 17 13 11 12 14 15 16 17 18 19 19 18 17 16 16 16 16 17 16 16 16 17 17 18 19 19 19 19 18 18 18 19 19 18 18 17 16 16 16 16 15 14 13 13 13 12 11 11 10 9 8 6 5 5 6 8 11 12 13 15 17 19 20 20
31 34 30 23 23 31 36 37 39 41 42 40 38 40 36 29 25 24 23 23 22 21 18 18 19 21 25 27 25 22 20 19 18 15 13 11 11 14 16 17 18 20 21 20 19 18 17 18 18 18 18 18 17 17 18 19 20 20 21 21 21 20 19 19 20 20 20 20 19 18 17 17 17 16 15 14 15 14 14 13 12 11 10 8 6 5 5 7 9 10 11 13 15 17 19 20 20
35 32 26 24 29 34 36 37 38 43 46 41 36 36 33 30 26 23 23 24 23 23 20 18 18 21 26 27 23 21 20 19 18 16 15 15 15 16 17 18 19 20 21 21 20 19 20 20 20 19 19 17 17 18 19 20 20 20 21 22 23 22 22 21 21 22 22 22 21 20 19 18 18 17 16 16 16 16 15 14 13 13 11 9 7 6 6 7 8 10 11 12 15 17 19 20 20
36 31 28 31 35 35 36 37 36 40 42 37 34 33 30 28 25 22 22 22 22 23 23 21 20 20 23 23 22 22 22 22 21 20 19 18 18 18 17 18 20 21 22 22 22 22 22 23 21 19 19 18 18 18 18 17 17 17 18 20 22 23 23 23 23 24 24 23 22 22 21 20 20 19 18 18 17 17 17 16 15 14 13 10 8 7 6 7 8 9 10 12 15 17 18 19 19
36 34 36 37 37 35 36 38 36 36 37 33 31 29 24 21 21 21 21 21 21 23 23 23 21 20 20 19 20 22 24 23 20 19 19 18 18 17 16 18 20 22 23 23 24 24 24 24 22 20 19 18 17 16 15 15 15 15 16 17 19 21 23 24 24 25 25 24 24 25 24 22 22 20 19 19 19 19 18 18 17 16 14 12 9 8 7 7 8 9 10 12 14 16 17 18 18
37 38 39 38 38 38 38 39 37 35 34 32 30 25 16 13 16 19 20 20 21 22 24 24 22 22 21 19 18 19 21 22 19 17 17 17 17 17 17 17 20 23 25 25 26 26 25 26 24 21 20 18 16 16 15 15 15 16 16 16 17 19 21 23 25 26 25 25 26 27 26 25 23 22 21 20 20 20 19 19 18 18 16 13 11 9 8 8 8 9 10 11 13 14 15 17 18
39 40 39 37 39 39 40 40 36 33 32 30 30 25 13 9 13 16 20 22 21 22 24 25 24 24 22 20 19 18 18 20 20 17 16 15 15 17 16 16 19 23 25 26 26 26 26 26 24 22 20 17 16 16 16 16 17 16 15 16 17 18 19 22 23 25 26 27 28 28 28 27 24 23 22 21 22 21 20 19 19 19 17 15 13 11 9 8 8 9 9 11 12 13 14 16 18
Wind_Direction
87 83 83 85 84 81 81 82 84 83 84 84 83 86 89 92 95 99 104 108 112 115 119 120 118 115 115 114 115 116 115 115 114 112 109 104 99 99 103 107 109 110 114 118 120 121 123 125 122 119 116 112 107 104 109 123 112 91 95 93 93 90 88 85 81 80 79 80 80 82 80 78 76 75 74 73 74 76 80 84 87 90 95 98 96 98 98 101 106 107 108 108 110 110 109 105 99
90 85 82 85 85 85 85 87 89 89 89 88 86 87 91 94 97 99 100 102 107 112 117 119 117 117 119 120 122 122 122 121 116 114 115 114 107 101 102 107 112 114 116 121 122 122 123 123 126 129 128 125 126 132 141 148 131 107 100 96 92 88 85 80 78 79 78 80 81 81 80 79 78 76 75 77 79 81 85 89 93 96 99 99 100 102 104 105 109 114 113 112 113 113 113 109 103
95 90 86 86 85 85 86 89 94 96 95 94 93 92 93 97 99 101 100 100 103 108 113 114 114 114 116 120 124 125 126 124 118 117 121 122 118 111 108 110 112 115 120 122 123 124 125 124 131 134 129 128 133 140 145 142 126 111 103 96 91 86 81 77 78 77 79 81 80 81 80 80 79 80 82 85 88 88 89 92 97 100 100 99 101 106 108 111 117 123 122 119 118 116 117 113 106
101 96 91 88 86 86 89 92 99 104 104 102 99 97 96 97 98 101 103 103 104 104 108 110 112 113 114 117 120 123 124 123 117 118 124 123 120 118 118 117 115 118 122 123 125 129 129 128 134 134 127 128 130 133 134 129 118 111 105 98 92 83 78 77 79 79 82 82 81 81 81 82 85 89 91 93 93 92 93 94 98 99 98 97 100 108 113 117 121 124 126 125 123 121 120 114 107
102 97 96 93 89 89 95 101 107 111 112 109 103 99 99 100 100 101 102 104 105 105 105 108 111 114 113 110 114 119 120 122 118 122 127 125 121 120 124 122 119 123 125 125 127 130 131 131 134 132 128 129 128 129 129 123 116 111 106 100 90 81 80 80 82 83 84 84 84 85 86 89 92 93 92 92 92 94 97 99 99 97 95 93 95 102 113 124 128 128 126 125 125 123 119 111 107
101 96 101 102 96 93 96 105 111 114 116 113 107 104 104 104 104 104 105 105 106 105 103 102 107 115 114 111 115 113 112 119 114 124 131 130 126 125 128 127 128 130 128 127 128 131 132 132 133 135 134 131 128 128 127 121 116 113 107 99 90 86 85 85 87 88 89 90 91 92 92 93 93 93 91 92 93 97 100 101 99 97 95 93 94 97 104 115 128 135 132 125 124 123 118 111 106
104 102 106 103 98 96 97 105 112 116 117 114 110 110 111 109 107 108 110 112 113 110 106 101 101 112 118 117 118 111 98 105 104 123 136 140 132 131 136 134 138 137 132 133 133 132 132 133 136 142 139 131 128 128 125 120 115 111 105 98 94 91 89 89 92 95 96 98 99 98 96 95 94 94 94 94 95 98 98 98 97 97 96 95 97 99 101 104 113 126 131 127 123 122 116 109 103
108 109 107 94 86 86 91 107 120 121 120 118 115 115 116 114 114 116 116 117 120 120 114 112 111 109 121 118 117 118 109 106 102 120 137 150 136 134 144 145 147 143 142 147 141 134 132 136 141 145 138 129 127 126 123 117 113 108 102 99 96 91 90 94 99 102 104 105 104 100 98 97 97 97 97 96 96 97 96 96 98 98 94 93 98 102 103 104 108 112 117 118 117 115 109 107 105
116 119 110 91 77 68 76 102 119 126 125 121 120 122 123 118 118 118 116 116 121 122 114 115 122 119 126 119 114 119 117 117 118 113 133 154 138 133 147 156 157 152 153 158 147 137 135 138 143 143 134 128 126 123 120 115 111 107 103 99 96 95 96 100 104 106 107 107 104 101 99 99 98 97 95 96 97 97 96 97 100 98 89 88 98 106 108 107 106 105 105 104 103 101 97 99 102
121 121 105 89 75 62 68 99 117 130 136 129 125 128 129 120 118 117 114 115 118 118 112 114 122 120 128 121 113 114 113 115 125 128 137 153 140 127 145 166 175 168 161 158 149 140 138 142 145 139 130 126 124 121 119 116 112 108 105 102 102 103 105 107 107 107 108 106 104 101 100 100 99 96 95 96 96 94 93 96 98 93 84 86 97 107 110 108 105 102 99 97 95 92 90 90 90
118 114 98 88 79 69 75 100 111 120 142 142 133 133 131 121 117 121 120 117 113 111 114 118 115 111 127 126 116 119 115 112 127 147 162 165 171 133 153 177 175 178 177 159 148 144 142 146 142 132 128 126 123 122 120 118 115 111 110 110 110 110 110 110 109 109 108 106 103 102 102 102 101 100 100 98 94 90 89 92 93 91 88 92 99 105 108 109 107 103 99 96 92 89 87 86 82
126 118 97 89 82 82 90 92 94 98 114 145 141 134 127 116 109 111 113 113 111 108 111 112 109 109 124 133 126 132 129 124 138 187 229 218 222 209 186 193 180 175 190 175 151 149 149 146 139 131 129 127 124 124 122 119 118 117 116 115 113 113 113 112 112 111 109 107 105 104 104 104 103 104 103 100 96 92 91 92 94 96 95 97 100 104 107 107 106 101 96 91 87 84 81 79 74
146 136 105 92 86 92 95 83 88 93 84 68 63 122 121 112 102 103 103 99 99 105 108 100 100 105 99 126 137 143 141 135 148 206 257 277 264 239 220 210 204 180 175 182 159 152 150 143 137 134 132 129 127 125 123 123 122 121 118 116 115 115 114 114 113 113 111 110 109 108 107 107 107 106 104 101 99 96 95 96 96 95 96 97 98 100 102 101 98 92 88 84 79 75 73 72 71
157 148 111 103 95 98 103 90 97 101 82 58 37 60 108 103 95 102 106 101 96 96 103 100 96 96 84 66 141 159 157 146 155 195 242 274 275 260 245 231 219 188 166 167 162 154 146 141 139 136 135 133 131 129 128 128 125 121 118 116 115 115 114 114 113 113 113 113 112 110 108 108 107 105 104 102 101 100 99 96 93 91 91 94 96 97 95 94 92 89 87 85 79 74 71 70 70
167 152 124 116 105 98 117 110 109 105 87 69 54 44 67 81 80 88 100 104 106 101 102 104 104 101 94 77 46 250 202 159 157 177 212 252 267 265 253 241 227 196 167 158 160 154 145 141 140 137 136 136 134 134 133 131 125 119 117 115 115 114 113 113 113 113 113 114 112 110 108 107 106 104 103 102 102 102 100 97 93 90 89 91 94 95 94 93 92 91 88 85 82 78 75 73 73
179 145 131 118 99 90 129 132 120 106 91 79 63 47 51 63 73 78 80 78 75 85 96 108 118 116 110 107 94 293 248 179 162 169 191 222 248 249 240 231 220 194 169 157 158 154 145 141 140 137 138 138 137 138 135 129 124 119 117 115 114 113 112 112 112 111 111 112 110 109 108 107 106 105 104 104 104 103 100 97 94 92 91 91 91 92 93 94 93 91 88 85 83 82 81 80 79
190 154 142 117 100 107 136 145 128 110 100 89 71 55 47 47 62 67 61 53 48 54 58 75 138 140 132 147 142 141 247 212 179 180 195 211 231 234 225 214 202 186 167 157 158 154 145 142 142 140 141 142 140 139 134 128 123 121 118 116 115 113 112 112 111 110 110 110 110 109 109 109 108 107 107 106 105 103 100 96 94 93 92 90 89 89 90 90 91 89 87 85 83 84 83 82 82
188 184 164 134 122 122 135 138 120 112 110 101 84 65 47 32 33 43 46 44 43 48 44 41 345 183 152 173 172 158 197 229 206 201 208 212 226 234 226 210 192 179 168 159 158 154 146 144 146 145 146 145 142 138 132 127 123 122 120 118 117 115 114 113 111 111 111 111 110 111 110 109 109 108 107 106 104 102 100 97 95 93 91 90 88 88 87 87 87 87 85 82 79 79 79 78 78
198 208 175 155 162 132 142 144 120 112 114 110 96 75 54 37 31 37 44 44 46 47 30 10 351 328 246 198 196 178 182 220 226 214 215 217 220 225 225 212 190 178 171 163 158 154 149 149 151 151 149 146 141 136 131 127 125 124 123 122 120 118 115 114 112 112 111 111 111 110 110 109 108 108 106 105 103 101 100 98 95 93 91 89 87 86 85 85 84 82 80 77 73 70 69 70 70
207 211 167 160 185 154 157 158 139 125 119 116 104 84 66 53 50 51 53 55 58 55 34 8 357 345 322 239 225 215 196 207 222 215 216 216 204 201 213 212 192 178 172 167 160 156 153 153 156 153 149 145 140 135 132 129 127 127 127 125 122 118 116 114 113 112 111 110 110 109 109 109 108 107 106 105 102 100 99 96 94 92 90 88 86 85 84 83 81 77 74 71 68 63 60 60 61
202 195 167 168 189 183 172 164 157 140 119 117 110 93 77 62 54 53 56 63 64 61 46 17 357 347 331 290 263 251 217 207 214 210 208 208 192 184 200 211 200 180 171 169 164 159 156 156 158 154 149 145 140 135 133 131 130 130 129 126 123 120 117 116 115 114 113 112 112 111 111 111 110 108 106 104 102 99 97 94 92 90 89 88 85 84 82 81 79 75 72 68 65 59 55 54 53
195 186 175 182 197 204 196 177 169 149 124 123 117 101 87 74 61 51 50 56 55 48 39 24 360 344 333 307 276 266 236 213 213 206 198 200 189 175 181 197 200 187 175 171 168 163 161 159 159 154 149 145 140 137 135 134 133 132 131 128 126 123 121 118 117 116 116 116 115 115 115 114 113 111 108 105 103 100 97 94 92 90 88 87 85 82 80 78 76 74 71 68 64 59 55 52 51
194 185 186 197 206 218 221 201 179 161 138 130 123 108 97 86 74 59 47 46 45 37 22 14 1 344 337 321 285 277 263 224 216 207 195 193 188 174 172 182 188 187 177 172 170 167 165 163 159 155 151 146 143 141 139 138 137 136 134 132 129 126 123 120 117 117 117 118 118 116 115 114 113 111 108 106 103 100 97 94 92 89 86 84 82 79 76 75 72 70 68 66 63 59 54 49 47
199 191 196 209 213 220 229 233 222 196 162 140 130 116 106 97 86 74 56 49 47 40 25 6 355 345 342 332 294 283 277 242 218 207 196 192 193 180 174 179 181 181 177 173 173 171 169 166 160 156 153 149 146 145 143 142 141 140 139 137 133 129 126 122 119 118 117 118 117 115 114 113 112 110 108 105 102 99 97 95 90 87 83 80 77 73 70 68 65 63 60 58 57 55 50 45 41
206 196 198 210 216 220 231 250 260 248 221 159 142 127 117 110 100 91 75 60 50 42 33 14 355 346 346 338 298 285 281 257 220 204 192 185 192 189 179 179 179 179 179 177 175 173 171 167 161 157 154 151 149 148 148 147 146 144 143 141 137 132 128 125 123 121 119 118 117 115 114 114 113 111 109 105 101 99 97 94 90 85 79 74 71 67 62 60 58 56 54 51 47 47 46 42 39
210 206 204 209 217 225 235 249 260 267 285 269 162 141 133 126 115 105 91 70 53 40 35 26 6 352 348 338 300 286 284 261 222 206 193 181 182 183 178 181 185 183 182 181 176 173 172 168 163 158 156 153 152 152 152 152 150 148 147 144 140 136 131 128 126 124 121 118 117 117 117 116 115 113 110 108 104 101 97 92 88 82 75 68 64 60 55 51 49 49 48 44 38 34 35 35 34
215 220 219 215 219 228 238 250 261 272 286 284 209 156 148 140 128 118 104 81 58 36 30 32 16 358 348 335 304 288 281 248 213 206 196 184 181 178 177 183 188 187 184 183 178 174 173 169 165 162 158 156 155 156 157 156 154 152 149 146 143 139 135 130 126 124 122 119 117 117 119 119 118 115 113 110 108 104 98 90 86 80 72 63 58 54 48 40 36 36 36 34 28 20 19 20 19
219 227 228 221 221 228 240 253 266 277 283 281 248 176 159 147 138 128 108 86 63 34 18 23 21 7 353 338 310 294 279 233 199 201 197 189 183 177 179 182 186 188 187 185 181 177 174 170 168 166 162 160 158 158 160 160 157 155 151 148 145 143 139 132 127 124 122 121 119 119 121 121 120 117 115 111 107 105 97 88 82 76 68 59 51 46 38 27 20 18 20 22 17 11 10 8 5
222 230 232 226 228 230 241 253 264 276 277 276 256 183 161 150 145 128 104 88 68 38 10 4 16 20 3 350 328 305 283 246 203 196 196 194 189 183 182 179 182 188 188 186 184 180 176 173 171 169 166 164 163 162 163 162 159 157 153 151 148 145 142 135 130 126 124 123 123 122 121 121 121 119 117 114 109 102 93 83 75 67 59 48 38 32 26 18 10 7 9 13 11 8 7 3 359
222 231 233 230 234 232 235 246 257 269 269 268 249 177 159 152 146 124 102 92 74 47 12 355 17 32 12 355 341 324 303 279 220 195 191 194 195 193 185 179 183 186 185 185 186 184 179 176 173 171 169 167 166 165 165 164 160 159 156 154 151 147 144 139 134 130 128 127 126 125 123 121 120 118 115 111 103 93 86 78 69 61 51 39 31 25 21 15 8 4 7 11 11 10 9 4 359
222 230 233 231 234 229 231 241 255 265 263 257 231 169 160 151 142 122 101 93 81 56 18 357 14 22 11 357 345 334 320 313 240 200 192 194 196 191 189 187 184 182 185 188 187 184 180 178 174 171 169 166 166 166 164 162 160 159 157 155 152 149 145 141 137 133 131 131 129 127 125 122 120 117 110 102 93 85 80 72 61 52 42 29 24 20 17 13 8 8 12 15 15 15 15 12 8
224 231 232 229 228 220 227 240 254 259 253 244 209 156 156 145 134 119 103 97 88 66 37 13 8 3 2 359 348 340 327 326 277 207 196 194 194 186 189 192 186 182 187 190 186 183 180 177 175 170 167 166 164 163 161 160 159 158 157 156 154 150 146 143 139 134 134 133 132 129 126 124 122 116 106 98 90 79 68 51 41 35 26 18 14 12 11 13 12 15 20 23 24 22 20 18 15
225 231 231 226 220 214 223 237 248 248 244 235 189 145 144 132 122 116 106 98 87 69 46 24 8 354 352 355 346 345 330 324 316 222 202 193 190 186 189 190 186 187 187 187 186 185 181 175 173 171 168 165 163 162 162 160 159 158 157 157 155 152 148 146 144 139 136 135 133 130 128 127 123 116 107 100 88 69 46 26 24 20 13 7 6 7 13 19 22 26 28 27 26 23 19 15 12
227 231 228 223 215 213 222 234 239 236 237 226 184 151 138 123 117 115 107 95 83 68 45 25 7 349 345 348 335 343 335 319 331 257 210 198 189 185 188 188 187 189 187 185 185 184 180 175 173 172 169 166 164 163 162 160 159 159 159 159 157 155 153 152 149 145 140 138 136 132 130 127 122 117 110 95 72 47 25 16 16 11 4 3 7 16 26 30 31 31 28 24 21 17 13 9 7
231 231 226 221 214 211 218 229 229 225 229 219 187 159 141 128 121 117 109 95 82 66 47 30 7 346 346 352 326 332 338 316 332 316 215 205 194 186 185 187 188 189 187 185 185 182 178 177 175 173 170 168 166 164 162 161 160 161 162 163 162 158 157 158 154 149 145 142 140 136 132 128 121 116 98 67 46 27 12 9 9 4 1 9 20 29 33 33 32 30 23 19 16 11 7 5 5
233 231 224 217 213 208 210 224 226 225 226 213 189 170 161 148 133 127 120 108 89 68 50 37 12 345 345 358 330 317 334 324 334 354 218 208 200 191 183 184 188 186 186 188 185 182 181 180 177 176 175 170 166 164 164 164 163 165 165 165 165 163 162 163 160 155 150 146 145 142 138 132 120 105 73 42 28 15 7 5 5 4 9 22 31 33 33 31 29 24 18 16 13 9 5 4 3
232 230 224 214 212 207 205 219 226 230 228 210 197 187 174 161 147 146 141 128 108 80 55 36 15 346 336 347 330 309 330 340 331 356 205 206 202 197 187 181 184 183 183 186 184 185 185 183 182 182 180 173 169 169 168 167 166 167 167 165 165 165 166 168 166 162 156 153 151 148 146 135 114 84 51 30 19 10 5 7 12 21 28 32 36 36 32 29 24 18 16 15 11 6 2 1 359
231 231 225 216 213 208 205 216 224 233 234 214 206 195 177 172 168 168 155 136 122 105 73 24 9 350 332 325 314 295 321 348 300 253 187 199 198 198 193 184 181 181 182 186 190 193 189 185 185 183 180 177 175 172 169 168 168 169 169 167 164 164 168 173 172 168 164 163 162 159 155 138 105 61 36 24 16 10 10 21 39 43 36 33 34 33 29 24 19 15 14 12 8 2 359 358 357
229 229 227 219 213 207 208 215 219 228 234 225 215 203 187 190 192 179 163 148 149 152 152 234 327 5 329 317 307 282 296 306 274 247 192 195 195 193 193 188 184 184 185 187 191 192 187 185 184 181 181 182 178 175 174 172 171 171 171 172 169 166 169 176 177 174 173 172 171 174 173 152 89 38 24 16 11 12 23 48 57 41 24 24 25 25 24 22 16 12 10 8 4 360 358 359 359
227 226 228 220 209 209 209 215 219 223 230 229 223 213 198 200 199 179 170 173 178 170 164 170 150 108 318 314 312 273 252 241 246 245 206 195 196 194 192 193 192 190 190 191 191 188 187 188 183 183 185 184 181 181 181 177 174 174 175 180 182 177 174 179 183 180 177 178 179 185 190 192 334 4 4 4 5 11 45 66 52 25 10 11 13 17 21 20 14 8 5 3 360 360 1 1 360
227 226 228 217 208 212 210 213 220 223 227 229 228 225 212 208 205 185 182 190 184 170 157 150 140 138 269 307 311 261 220 234 236 236 219 195 194 196 196 198 197 194 194 196 196 194 197 196 190 188 189 185 184 186 185 181 182 184 185 190 195 194 186 184 189 188 185 186 188 195 205 221 274 322 335 344 349 351 83 82 29 360 355 356 1 13 20 15 8 2 360 357 356 360 3 2 360
226 226 228 217 208 213 211 212 220 224 227 227 231 232 219 212 211 197 196 194 177 168 159 150 147 155 177 291 307 271 218 229 237 232 224 204 195 195 198 202 202 201 201 200 201 201 203 203 199 195 193 192 191 190 186 187 193 196 197 202 203 202 199 193 193 197 196 195 196 205 217 229 257 292 312 323 321 296 231 221 277 324 335 342 353 9 16 8 358 356 354 351 353 359 2 3 1
225 222 225 220 211 211 211 212 219 225 227 225 230 235 227 216 212 205 205 195 179 176 167 157 155 152 146 136 297 279 238 218 229 232 225 215 207 199 197 203 207 212 214 212 208 206 206 206 205 205 205 206 204 199 195 197 204 208 210 214 211 207 208 202 199 205 207 204 206 214 223 231 248 275 299 307 299 274 248 243 259 296 318 327 343 359 4 358 350 350 349 346 350 356 1 3 3
224 215 219 222 215 211 211 212 219 224 226 225 227 235 236 222 210 211 214 202 189 182 171 161 156 147 140 133 122 278 253 219 215 225 227 222 217 209 201 198 201 213 221 222 220 219 217 215 212 213 217 219 217 211 206 207 213 218 219 219 218 217 213 206 203 208 210 210 214 220 225 233 243 262 285 288 281 268 252 246 255 283 304 313 326 347 352 350 345 346 345 344 352 357 360 1 360
215 209 217 222 218 213 211 213 217 222 227 227 226 233 242 232 208 215 220 208 195 182 171 164 154 145 138 135 130 204 252 237 212 213 222 225 224 217 209 200 199 206 215 221 226 229 228 225 220 217 219 223 225 221 214 213 218 223 225 223 223 224 221 212 209 209 210 213 218 220 223 229 238 252 267 269 267 264 255 248 253 276 296 299 306 336 344 343 342 344 346 348 357 359 357 356 354
202 208 213 217 218 215 212 215 217 220 227 231 227 230 244 243 208 214 220 209 197 178 169 164 155 149 144 145 152 170 227 241 225 209 209 218 225 221 215 210 208 209 212 217 224 229 230 228 227 224 222 224 227 227 223 219 221 225 227 226 227 228 224 219 218 217 215 217 220 221 223 226 233 245 257 261 264 264 259 254 254 273 290 289 296 326 333 338 342 347 351 356 359 357 352 350 349
200 207 209 213 217 214 213 217 217 221 231 237 228 226 243 249 211 211 218 201 189 179 173 170 162 155 149 148 152 155 192 238 237 223 206 209 220 222 218 216 218 219 218 220 222 224 225 223 222 221 220 218 219 223 225 226 226 225 226 228 231 231 225 222 224 226 223 220 222 225 226 227 231 242 254 260 265 264 259 256 257 272 285 283 291 314 326 341 348 350 355 356 355 353 349 347 345
205 206 208 213 217 214 214 216 218 226 239 244 230 226 238 241 187 201 219 198 190 187 181 177 167 158 153 152 153 152 160 205 238 233 217 211 218 222 221 217 221 226 228 228 225 221 219 216 213 210 206 204 207 213 220 226 230 229 229 232 236 236 229 223 225 230 230 226 227 230 230 230 234 241 251 261 267 264 257 254 258 270 280 280 287 308 328 346 350 350 351 351 352 353 351 348 345
216 211 211 215 218 218 218 218 223 235 252 251 235 230 237 238 190 205 219 194 190 189 188 185 172 164 161 160 159 159 164 181 221 237 227 218 217 221 220 215 215 219 226 231 228 223 220 217 216 213 208 205 204 207 212 219 226 230 232 233 236 240 235 228 228 233 234 231 231 234 235 236 238 243 251 261 269 265 255 250 256 267 273 271 283 307 329 344 345 346 347 349 354 356 356 354 348
235 227 223 223 225 226 227 227 232 246 260 254 238 231 238 244 230 223 221 201 193 188 192 194 184 177 169 163 165 166 169 177 196 223 229 222 218 220 222 219 215 213 220 227 228 227 226 225 226 225 224 222 218 215 214 216 221 228 234 235 237 241 240 236 234 236 238 237 235 236 239 243 245 246 252 262 271 268 256 248 252 261 263 260 278 305 325 336 340 342 344 348 357 360 360 359 355
240 238 234 233 235 237 238 238 241 250 257 252 241 233 240 248 244 236 232 222 212 198 198 202 198 192 179 171 173 176 179 182 188 200 213 221 222 220 220 222 220 218 222 228 230 231 232 233 235 237 237 238 234 230 226 223 224 229 234 237 239 241 241 240 240 242 245 244 240 239 242 246 248 250 255 263 269 269 262 250 249 256 255 253 271 298 315 326 332 336 341 349 358 0 359 0 360
234 232 231 236 241 242 241 239 241 245 249 250 246 242 247 256 253 247 240 231 225 215 209 209 206 200 192 187 185 185 188 188 188 191 197 213 226 225 221 222 223 224 226 230 234 236 237 238 239 241 244 245 244 242 239 235 234 235 236 238 240 240 240 242 243 244 246 245 243 242 245 248 253 257 260 262 265 269 266 253 249 252 250 250 266 286 301 315 324 331 340 349 356 358 358 359 360
233 232 231 238 243 240 239 239 239 242 245 248 250 252 258 261 256 250 244 237 232 226 219 211 206 202 201 199 194 193 192 190 189 191 195 209 227 232 228 224 224 227 230 233 236 239 241 241 241 242 245 249 250 249 247 245 245 245 243 242 242 242 241 242 244 244 243 244 245 246 249 253 257 259 258 257 262 269 269 258 249 248 247 249 260 273 289 306 318 327 337 346 353 355 355 356 357
230 231 230 235 236 234 235 236 234 237 243 247 249 252 256 257 252 249 246 241 236 233 229 218 208 206 207 206 202 199 196 196 196 197 202 211 221 229 231 228 224 225 231 235 237 240 243 243 243 244 248 251 250 248 248 248 249 249 247 245 243 242 241 241 244 245 245 246 248 250 253 255 257 258 257 258 262 267 269 263 251 245 244 246 252 262 278 297 311 322 333 342 349 351 352 353 353
229 227 223 228 232 232 235 237 234 235 241 249 250 250 252 252 252 251 250 247 242 239 238 230 221 215 212 212 211 207 204 204 205 204 208 216 221 224 229 233 229 225 228 233 236 239 243 245 245 246 249 249 247 249 251 252 253 251 250 247 244 242 241 241 242 245 248 248 250 252 253 254 256 258 259 259 260 262 267 266 255 246 244 244 247 255 270 290 304 316 328 338 345 348 349 350 351
228 226 224 225 229 233 236 240 241 240 244 252 256 255 255 255 258 259 257 254 248 244 242 239 234 227 222 219 219 217 215 215 213 209 213 221 226 226 228 233 233 229 228 230 234 238 243 247 248 248 248 247 248 253 255 254 253 252 252 251 249 245 243 242 242 245 248 249 250 252 253 254 255 257 257 258 258 259 264 267 258 249 246 245 246 250 261 280 296 309 323 334 342 345 346 348 352
229 228 229 229 231 233 234 237 240 240 244 250 254 256 256 252 254 259 259 256 251 247 246 245 242 237 231 226 225 225 220 216 210 204 207 217 227 230 229 233 234 230 228 228 231 235 239 244 246 247 247 246 249 253 253 253 252 251 252 252 251 248 244 243 243 244 246 248 250 253 254 255 256 257 256 256 256 256 261 265 259 250 248 248 249 251 257 272 288 302 317 328 337 341 343 347 351
230 231 232 233 236 238 238 239 241 244 248 251 254 260 261 240 238 244 250 253 252 248 247 247 246 243 235 228 229 226 210 200 195 192 197 207 224 232 231 233 234 231 228 228 231 233 237 242 245 246 246 245 247 250 251 252 252 253 254 253 252 251 249 247 245 244 246 247 249 251 253 255 255 255 254 252 252 253 258 263 259 252 251 251 252 254 259 270 283 296 311 322 331 336 340 345 350